Location: Bagnolo San Vito
(45.0833°N, 10.8833°E)
Time: 23:02:22
(UTC+00:00)

ASTEX 1 - Pass Details

Date: 03 March 2021
Orbit: 720 x 743 km, 92.7° (Epoch: 17 April)

Event Time Altitude Azimuth Distance (km) Brightness Sun altitude
Rises 19:20:46 0° 4° (N) 3,149 6.8 -24.3°
Reaches altitude 10° 19:23:04 10° 3° (N) 2,222 6.0 -24.7°
Maximum altitude 19:27:58 80° 278° (W) 738 3.4 -25.5°
Enters shadow 19:30:15 32° 195° (SSW) 1,224 4.5 -25.9°
